[[{"header":{"parameterUnit":"m.s-1","parameterCategory":2,"la1":30.2991,"la2":30.254,"lo1":-89.0895,"lo2":-89.0444,"dy":0.0017,"dx":0.0017,"nx":28,"ny":28,"refTime":"2025-07-23T09:00:00:Z","depth":"0","parameterNumber":2,"parameterNumberName":"U-component_of_CURRENTS"},"data":[0,0,0,0,0,0,0,0,0,0,0,0,0,0,0,0,0,0,0,0,0,0,0,0,0,0,0,0,0,0,0,0,0,0,0,0,0,0,0,0,0,0,0,0,0,0,0,0,0,0,0,0,0,0,0,0,0,0,-0.293,-0.2932,0,-0.3055,-0.3055,-0.3056,-0.3088,-0.3088,-0.3087,-0.3087,-0.3079,-0.3079,-0.308,0,0,0,0,0,0,0,0,0,0,0,0,0,-0.2709,-0.2712,-0.293,-0.2932,-0.2934,-0.3054,-0.3056,-0.3057,-0.3088,-0.3088,-0.3087,-0.3087,-0.3079,-0.3079,-0.308,0,0,0,0,0,0,0,0,0,0,0,0,0,-0.2811,-0.2713,-0.293,-0.2969,-0.2974,-0.3054,-0.3056,-0.3057,-0.3088,-0.3088,-0.3087,-0.3087,-0.3079,-0.3079,-0.308,-0.3088,0,0,-0.308,-0.308,0,0,0,0,0,0,0,0,-0.2805,-0.2818,-0.2961,-0.2966,-0.2972,-0.306,-0.2975,-0.3063,-0.3088,-0.3039,-0.3087,-0.3087,-0.3065,-0.3066,-0.3084,-0.3087,-0.3087,-0.308,-0.308,-0.308,-0.308,0,0,0,0,0,0,0,-0.2798,-0.2813,-0.2974,-0.2963,-0.297,-0.2977,-0.299,-0.2992,-0.3045,-0.3043,-0.3047,-0.307,-0.3066,-0.3084,-0.3084,-0.3087,-0.308,-0.308,-0.308,-0.308,-0.3036,-0.3035,0,0,0,0,0,0,-0.2796,-0.2807,-0.297,-0.2978,-0.2892,-0.2981,-0.2996,-0.3028,-0.3049,-0.3054,-0.307,-0.3071,-0.3084,-0.3084,-0.3083,-0.3042,-0.308,-0.308,-0.308,-0.3038,-0.3036,-0.3035,0,0,0,0,0,0,-0.2791,-0.2809,-0.2965,-0.2898,-0.292,-0.2986,-0.3021,-0.3031,-0.3046,-0.3072,-0.3073,-0.3077,-0.3084,-0.3083,-0.3086,-0.3044,-0.308,-0.308,-0.3039,-0.3037,-0.3036,-0.2992,0,0,0,0,0,0,-0.2784,-0.2807,-0.2818,-0.2899,-0.2924,-0.2997,-0.3022,-0.3033,-0.3064,-0.3066,-0.3078,-0.3077,-0.3084,-0.3086,-0.3086,-0.3045,-0.308,-0.3041,-0.3038,-0.3036,-0.2995,-0.2989,-0.2984,0,0,0,0,0,-0.2775,-0.2792,-0.2818,-0.2838,-0.2941,-0.2997,-0.3009,-0.3051,-0.3065,-0.3064,-0.3082,-0.3077,-0.307,-0.3086,-0.3086,-0.3044,-0.3042,-0.3039,-0.3036,-0.2998,-0.2991,-0.2984,0,0,0,0,0,0,-0.2702,-0.2801,-0.283,-0.2876,-0.2927,-0.3004,-0.3014,-0.3048,-0.3066,-0.3062,-0.3081,-0.3081,-0.3052,-0.3064,-0.3081,-0.3023,-0.3047,-0.3044,-0.3017,-0.3011,-0.3005,-0.2965,-0.308,0,0,0,0,0,-0.2694,-0.2726,-0.2819,-0.2848,-0.2877,-0.2944,-0.2971,-0.3002,-0.3039,-0.3047,-0.3063,-0.3063,-0.3043,-0.3043,-0.303,-0.3021,-0.301,-0.2987,-0.2981,-0.2977,-0.2943,-0.2937,-0.2928,-0.3026,-0.3026,-0.3026,0,0,-0.2665,-0.273,-0.2743,-0.2833,-0.2876,-0.2892,-0.2957,-0.2994,-0.2984,-0.304,-0.3025,-0.3041,-0.3034,-0.3009,-0.2997,-0.3017,-0.2939,-0.2973,-0.297,-0.2938,-0.2933,-0.2923,-0.2915,-0.3024,-0.3025,-0.3025,0,0,-0.2616,-0.2691,-0.2692,-0.2738,-0.2811,-0.2853,-0.2861,-0.2937,-0.2946,-0.2958,-0.2971,-0.2968,-0.2974,-0.2952,-0.294,-0.2897,-0.2902,-0.2898,-0.2848,-0.2844,-0.2835,-0.2828,-0.2787,-0.2777,-0.2907,-0.2906,-0.2906,0,-0.2569,-0.2611,-0.2695,-0.2711,-0.2743,-0.2827,-0.2826,-0.2842,-0.2901,-0.2915,-0.2937,-0.294,-0.2929,-0.2886,-0.286,-0.2878,-0.288,-0.2878,-0.2836,-0.2829,-0.2822,-0.2783,-0.2771,-0.2904,-0.2904,-0.2905,-0.2905,0,-0.2511,-0.2557,-0.2565,-0.261,-0.2643,-0.2667,-0.2718,-0.2731,-0.2768,-0.281,-0.2804,-0.2817,-0.2829,-0.2812,-0.2816,-0.276,-0.2777,-0.2824,-0.2854,-0.281,-0.2771,-0.276,-0.2901,-0.2901,-0.2902,-0.2903,0,0,-0.2375,-0.2499,-0.2499,-0.2545,-0.2605,-0.2644,-0.2609,-0.2643,-0.2664,-0.2688,-0.2708,-0.2655,-0.2717,-0.2703,-0.2722,-0.27,-0.2636,-0.2739,-0.274,-0.2697,-0.2609,-0.2422,-0.2393,-0.2703,-0.2701,-0.27,-0.2596,0,-0.2301,-0.2348,-0.2402,-0.2429,-0.2474,-0.2535,-0.2526,-0.2561,-0.2603,-0.2644,-0.2645,-0.2675,-0.2661,-0.2696,-0.2659,-0.2665,-0.2609,-0.2657,-0.2657,-0.2655,-0.2495,-0.2373,-0.2122,-0.1991,-0.2586,-0.2584,-0.2583,0,-0.2207,-0.2281,-0.2313,-0.2432,-0.245,-0.2463,-0.2519,-0.2523,-0.2569,-0.2608,-0.2627,-0.2669,-0.2625,-0.2644,-0.2571,-0.262,-0.2577,-0.2564,-0.2562,-0.2386,-0.2446,-0.2134,-0.1949,-0.1832,-0.2566,-0.2567,-0.2569,0,-0.2129,-0.2209,-0.2257,-0.2292,-0.2416,-0.2431,-0.2474,-0.2528,-0.2561,-0.2606,-0.2655,-0.2637,-0.2657,-0.26,-0.2536,-0.2578,-0.2454,-0.253,-0.2298,-0.2287,-0.2059,-0.2028,-0.175,-0.2427,-0.2427,-0.2428,-0.2428,0,-0.2061,-0.2106,-0.2248,-0.2299,-0.2376,-0.2436,-0.2501,-0.2542,-0.2592,-0.2632,-0.266,-0.2659,-0.2653,-0.2594,-0.2524,-0.234,-0.2441,-0.222,-0.2224,-0.2033,-0.2003,-0.1885,-0.1989,-0.2424,-0.2425,-0.2425,-0.2426,0,-0.2011,-0.2079,-0.2188,-0.233,-0.2369,-0.2442,-0.2551,-0.2593,-0.2636,-0.2674,-0.2687,-0.2688,-0.2568,-0.2503,-0.2406,-0.2313,-0.2095,-0.2083,-0.1827,-0.1796,-0.1452,-0.1568,-0.1472,-0.1454,-0.1804,-0.1798,-0.1793,0,-0.2,-0.2058,-0.2242,-0.2312,-0.2393,-0.2494,-0.2556,-0.2621,-0.2646,-0.2658,-0.2659,-0.2574,-0.2418,-0.2182,-0.1983,-0.1759,-0.1847,-0.1462,-0.1456,-0.1313,-0.1449,-0.1634,-0.1645,-0.1152,-0.1143,-0.1135,-0.1129,0,-0.2037,-0.2111,-0.2224,-0.2352,-0.2444,-0.2512,-0.2584,-0.26,-0.2629,-0.2596,-0.2466,-0.2325,-0.2059,-0.1629,-0.137,-0.1278,-0.1386,-0.129,-0.1217,-0.0928,-0.1042,-0.1065,-0.1353,-0.1059,-0.1066,-0.1071,-0.1075,-0.1077,-0.208,-0.2163,-0.2285,-0.2386,-0.2469,-0.2457,-0.2386,-0.2392,-0.2321,-0.2098,-0.2146,-0.1739,-0.1298,-0.0828,-0.0788,-0.0499,-0.0845,-0.0405,-0.0563,-0.0765,-0.0702,-0.0792,-0.0465,-0.0468,-0.0471,-0.0474,-0.0476,0,-0.2105,-0.2179,-0.229,-0.2346,-0.2321,-0.2374,-0.2328,-0.2137,-0.1896,-0.169,-0.1419,-0.0758,-0.0264,-0.0026,0.0359,0.0336,0.0094,0.0209,0.0025,-0.003,-0.0084,0.0005,0.0542,0.0542,0.0542,0.0542,0.0542,0.0542,-0.2123,-0.2202,-0.2234,-0.2157,-0.2139,-0.1905,-0.1786,-0.1532,-0.128,-0.0717,-0.0263,-0.0013,0.0349,0.0795,0.0985,0.0857,0.0582,0.0481,0.0256,0.0287,0.0218,0.0151,0.0227,0.0801,0.0801,0.0443,0.044,0.0438]},{"header":{"parameterUnit":"m.s-1","parameterCategory":2,"la1":30.2991,"la2":30.254,"lo1":-89.0895,"lo2":-89.0444,"dy":0.0017,"dx":0.0017,"nx":28,"ny":28,"refTime":"2025-07-23T09:00:00:Z","depth":"0","parameterNumber":3,"parameterNumberName":"V-component_of_CURRENTS"},"data":[0,0,0,0,0,0,0,0,0,0,0,0,0,0,0,0,0,0,0,0,0,0,0,0,0,0,0,0,0,0,0,0,0,0,0,0,0,0,0,0,0,0,0,0,0,0,0,0,0,0,0,0,0,0,0,0,0,0,-0.1457,-0.1457,0,-0.1418,-0.1417,-0.1416,-0.1359,-0.1359,-0.1358,-0.1357,-0.1174,-0.117,-0.1166,0,0,0,0,0,0,0,0,0,0,0,0,0,-0.1438,-0.1439,-0.1457,-0.1457,-0.1457,-0.1418,-0.1417,-0.1416,-0.1359,-0.1359,-0.1358,-0.1357,-0.1176,-0.1171,-0.1166,0,0,0,0,0,0,0,0,0,0,0,0,0,-0.1424,-0.1439,-0.1457,-0.1427,-0.1424,-0.1418,-0.1417,-0.1416,-0.136,-0.1359,-0.1358,-0.1357,-0.1178,-0.1171,-0.1165,-0.1144,0,0,-0.1145,-0.1143,0,0,0,0,0,0,0,0,-0.1425,-0.1424,-0.1431,-0.1429,-0.1426,-0.1396,-0.1344,-0.1319,-0.136,-0.138,-0.1357,-0.1356,-0.1238,-0.1227,-0.1218,-0.1136,-0.1128,-0.1145,-0.1141,-0.1138,-0.1136,0,0,0,0,0,0,0,-0.1426,-0.1425,-0.1438,-0.1431,-0.1428,-0.14,-0.1397,-0.1339,-0.1309,-0.1378,-0.1375,-0.1377,-0.1235,-0.1225,-0.1213,-0.1125,-0.1145,-0.1139,-0.1135,-0.1133,-0.0979,-0.0979,0,0,0,0,0,0,-0.1442,-0.1427,-0.1439,-0.1437,-0.1427,-0.1402,-0.1398,-0.1403,-0.1313,-0.1301,-0.1378,-0.1374,-0.1236,-0.1221,-0.1206,-0.1182,-0.1138,-0.1132,-0.1128,-0.0979,-0.0979,-0.0978,0,0,0,0,0,0,-0.1442,-0.1444,-0.1441,-0.1433,-0.1432,-0.1404,-0.141,-0.1403,-0.1385,-0.1315,-0.1299,-0.1366,-0.1235,-0.1215,-0.1159,-0.1174,-0.1129,-0.1123,-0.0979,-0.0979,-0.0979,-0.1129,0,0,0,0,0,0,-0.1442,-0.1444,-0.1451,-0.1435,-0.1433,-0.1444,-0.1411,-0.1403,-0.139,-0.1385,-0.13,-0.1283,-0.1232,-0.1169,-0.1152,-0.1164,-0.1118,-0.098,-0.0979,-0.0979,-0.1124,-0.1134,-0.1142,0,0,0,0,0,-0.1441,-0.1458,-0.1452,-0.1453,-0.1444,-0.1445,-0.1441,-0.1414,-0.1391,-0.1392,-0.1334,-0.1285,-0.1153,-0.1164,-0.1144,-0.1155,-0.098,-0.0979,-0.0979,-0.112,-0.1132,-0.1141,0,0,0,0,0,0,-0.1454,-0.1453,-0.1446,-0.1461,-0.1457,-0.1437,-0.1438,-0.1417,-0.1374,-0.1359,-0.1286,-0.1266,-0.1226,-0.1159,-0.1173,-0.1104,-0.1056,-0.1052,-0.117,-0.118,-0.1189,-0.1199,-0.1113,0,0,0,0,0,-0.1462,-0.1475,-0.1468,-0.1483,-0.1482,-0.1458,-0.1453,-0.1435,-0.14,-0.138,-0.1327,-0.1258,-0.121,-0.1172,-0.1118,-0.1077,-0.1023,-0.1066,-0.1075,-0.1083,-0.1075,-0.1031,-0.1037,-0.0977,-0.0977,-0.0977,0,0,-0.1471,-0.1476,-0.1481,-0.1487,-0.1479,-0.1489,-0.1452,-0.1448,-0.1445,-0.1364,-0.1337,-0.1291,-0.1207,-0.1176,-0.1149,-0.112,-0.1071,-0.1082,-0.1091,-0.1077,-0.1031,-0.1037,-0.1043,-0.0976,-0.0976,-0.0976,0,0,-0.151,-0.15,-0.1528,-0.1537,-0.1536,-0.1509,-0.151,-0.1489,-0.1464,-0.1432,-0.1385,-0.1349,-0.1257,-0.1224,-0.1187,-0.1201,-0.1128,-0.1177,-0.1223,-0.1183,-0.1188,-0.1192,-0.1143,-0.1141,-0.1173,-0.1173,-0.1173,0,-0.1515,-0.157,-0.1536,-0.1576,-0.1602,-0.1522,-0.1569,-0.1518,-0.148,-0.1472,-0.1431,-0.1336,-0.128,-0.1249,-0.1263,-0.1225,-0.1184,-0.1202,-0.1199,-0.1201,-0.1203,-0.1151,-0.1147,-0.118,-0.118,-0.1179,-0.1178,0,-0.1588,-0.1636,-0.1655,-0.1677,-0.1682,-0.171,-0.1657,-0.1623,-0.1571,-0.1538,-0.1495,-0.1417,-0.1361,-0.1345,-0.1307,-0.1297,-0.1259,-0.1231,-0.1186,-0.1219,-0.1161,-0.1154,-0.1191,-0.1188,-0.1186,-0.1184,0,0,-0.16,-0.169,-0.1703,-0.176,-0.1756,-0.1768,-0.1737,-0.1715,-0.1687,-0.1616,-0.1606,-0.1532,-0.1485,-0.1439,-0.1388,-0.1351,-0.1345,-0.1303,-0.1298,-0.1279,-0.125,-0.1122,-0.1102,-0.1326,-0.1325,-0.1325,-0.1211,0,-0.1678,-0.1798,-0.1816,-0.191,-0.1968,-0.1915,-0.1889,-0.1843,-0.1772,-0.1719,-0.1623,-0.1581,-0.1515,-0.1498,-0.145,-0.1371,-0.1332,-0.1378,-0.1197,-0.1191,-0.1094,-0.1092,-0.0969,-0.0848,-0.1204,-0.1203,-0.1202,0,-0.1765,-0.1836,-0.1968,-0.2052,-0.2067,-0.2084,-0.2054,-0.202,-0.1903,-0.1855,-0.1779,-0.1691,-0.162,-0.1558,-0.1413,-0.1446,-0.136,-0.1289,-0.1283,-0.1101,-0.105,-0.0865,-0.0821,-0.0764,-0.1191,-0.1192,-0.1193,0,-0.1823,-0.1954,-0.2072,-0.211,-0.2152,-0.2181,-0.2158,-0.2069,-0.2015,-0.1938,-0.1891,-0.1785,-0.1705,-0.1592,-0.141,-0.1427,-0.1236,-0.1239,-0.1038,-0.1028,-0.0851,-0.0825,-0.0743,-0.1145,-0.1145,-0.1145,-0.1146,0,-0.1922,-0.2012,-0.2111,-0.2172,-0.224,-0.2254,-0.2245,-0.2206,-0.2109,-0.2016,-0.196,-0.1844,-0.171,-0.1559,-0.143,-0.1182,-0.1239,-0.1032,-0.0984,-0.0897,-0.0878,-0.0758,-0.078,-0.1141,-0.1142,-0.1143,-0.1144,0,-0.1969,-0.2049,-0.2165,-0.2252,-0.2278,-0.2306,-0.2273,-0.2213,-0.217,-0.2045,-0.2023,-0.1882,-0.1679,-0.1517,-0.1313,-0.1177,-0.0902,-0.0896,-0.0792,-0.0734,-0.0496,-0.0531,-0.0369,-0.0271,-0.0668,-0.0664,-0.0661,0,-0.2001,-0.2087,-0.2203,-0.2235,-0.2281,-0.2305,-0.2262,-0.2223,-0.2134,-0.2008,-0.1922,-0.1763,-0.1521,-0.1197,-0.098,-0.073,-0.0712,-0.0498,-0.0503,-0.0446,-0.0452,-0.0487,-0.0421,-0.0337,-0.0332,-0.0327,-0.0323,0,-0.2051,-0.2098,-0.2174,-0.2224,-0.2238,-0.2194,-0.2148,-0.2086,-0.1972,-0.1854,-0.1616,-0.1447,-0.1174,-0.0827,-0.0584,-0.0428,-0.0417,-0.0393,-0.036,-0.0197,-0.0201,-0.0095,-0.0462,-0.0282,-0.0286,-0.0289,-0.0291,-0.0293,-0.205,-0.2092,-0.2168,-0.2195,-0.2162,-0.2018,-0.1887,-0.1787,-0.1582,-0.1281,-0.1256,-0.0868,-0.0686,-0.0296,-0.0179,0.0049,-0.0064,0.0126,0.0075,0.0033,0.0143,-0.0122,0.0128,0.0126,0.0124,0.0123,0.0122,0,-0.2025,-0.2075,-0.2119,-0.2064,-0.1904,-0.1921,-0.1731,-0.1508,-0.117,-0.0911,-0.0608,-0.0143,0.0076,0.0194,0.036,0.0472,0.0499,0.0511,0.0464,0.0509,0.0275,0.0308,0.0641,0.0641,0.0641,0.0641,0.0641,0.0641,-0.201,-0.2047,-0.2059,-0.1809,-0.1707,-0.1374,-0.1195,-0.0911,-0.0648,-0.0075,0.0332,0.0572,0.0655,0.051,0.0603,0.0667,0.0742,0.0778,0.076,0.0548,0.0506,0.0466,0.0493,0.086,0.086,0.1067,0.1068,0.1069]}],[{"header":{"parameterUnit":"m.s-1","parameterCategory":2,"la1":30.2991,"la2":30.254,"lo1":-89.0895,"lo2":-89.0444,"dy":0.0017,"dx":0.0017,"nx":28,"ny":28,"refTime":"2025-07-23T09:00:00:Z","depth":"2","parameterNumber":2,"parameterNumberName":"U-component_of_CURRENTS"},"data":[0,0,0,0,0,0,0,0,0,0,0,0,0,0,0,0,0,0,0,0,0,0,0,0,0,0,0,0,0,0,0,0,0,0,0,0,0,0,0,0,0,0,0,0,0,0,0,0,0,0,0,0,0,0,0,0,0,0,-0.1709,-0.1708,0,-0.1607,-0.1605,-0.1603,-0.1647,-0.165,-0.1653,-0.1656,-0.175,-0.175,-0.1749,0,0,0,0,0,0,0,0,0,0,0,0,0,-0.1747,-0.1747,-0.1709,-0.1708,-0.1708,-0.1607,-0.1605,-0.1603,-0.1646,-0.165,-0.1654,-0.1658,-0.1751,-0.175,-0.1749,0,0,0,0,0,0,0,0,0,0,0,0,0,-0.1688,-0.1747,-0.1709,-0.1725,-0.1726,-0.1608,-0.1605,-0.1602,-0.1645,-0.165,-0.1655,-0.166,-0.1751,-0.175,-0.1749,-0.1643,0,0,-0.1746,-0.1746,0,0,0,0,0,0,0,0,-0.1691,-0.1685,-0.1723,-0.1723,-0.1724,-0.1653,-0.1653,-0.1629,-0.1644,-0.1666,-0.1657,-0.1662,-0.1738,-0.1739,-0.1692,-0.1647,-0.1651,-0.1746,-0.1745,-0.1745,-0.1745,0,0,0,0,0,0,0,-0.1696,-0.1689,-0.1659,-0.1722,-0.1723,-0.1671,-0.1669,-0.1646,-0.1671,-0.1664,-0.1669,-0.1672,-0.174,-0.1692,-0.1695,-0.1653,-0.1746,-0.1745,-0.1745,-0.1744,-0.1674,-0.1673,0,0,0,0,0,0,-0.1732,-0.1693,-0.1662,-0.1657,-0.1731,-0.1668,-0.1665,-0.1663,-0.1667,-0.1674,-0.1667,-0.1674,-0.1692,-0.1696,-0.1699,-0.1737,-0.1745,-0.1744,-0.1744,-0.1676,-0.1674,-0.1673,0,0,0,0,0,0,-0.1733,-0.1729,-0.1666,-0.1681,-0.1671,-0.1664,-0.166,-0.1659,-0.1646,-0.167,-0.1679,-0.1663,-0.1696,-0.1701,-0.1696,-0.1736,-0.1744,-0.1743,-0.1677,-0.1675,-0.1673,-0.1709,0,0,0,0,0,0,-0.1734,-0.173,-0.1737,-0.1683,-0.1672,-0.1635,-0.1656,-0.1653,-0.1642,-0.1651,-0.1668,-0.1679,-0.17,-0.1697,-0.1695,-0.1735,-0.1742,-0.1679,-0.1676,-0.1674,-0.1709,-0.1709,-0.1708,0,0,0,0,0,-0.1735,-0.1721,-0.1737,-0.1734,-0.1682,-0.1636,-0.1624,-0.1629,-0.1638,-0.1633,-0.1632,-0.1681,-0.1682,-0.1693,-0.1692,-0.1733,-0.168,-0.1677,-0.1674,-0.171,-0.1709,-0.1708,0,0,0,0,0,0,-0.1741,-0.1723,-0.174,-0.1724,-0.1707,-0.1649,-0.1628,-0.1625,-0.1605,-0.1624,-0.164,-0.1649,-0.1672,-0.1666,-0.1678,-0.17,-0.1697,-0.1694,-0.1725,-0.1724,-0.1723,-0.1766,-0.1741,0,0,0,0,0,-0.1745,-0.1734,-0.1716,-0.1706,-0.1692,-0.1657,-0.1636,-0.1647,-0.1623,-0.1619,-0.1626,-0.1632,-0.1641,-0.1657,-0.1657,-0.1643,-0.1652,-0.1671,-0.167,-0.1669,-0.1699,-0.1716,-0.1721,-0.1663,-0.1663,-0.1663,0,0,-0.1733,-0.1734,-0.1721,-0.1707,-0.1678,-0.1667,-0.1655,-0.1634,-0.1647,-0.1632,-0.1633,-0.1628,-0.1632,-0.1641,-0.1651,-0.1654,-0.1681,-0.1666,-0.1666,-0.1696,-0.1713,-0.172,-0.1725,-0.1661,-0.1661,-0.1662,0,0,-0.1711,-0.1712,-0.1697,-0.1682,-0.1676,-0.1671,-0.1675,-0.1634,-0.1642,-0.1632,-0.1635,-0.1638,-0.1635,-0.1647,-0.1655,-0.1633,-0.1675,-0.1644,-0.1684,-0.1699,-0.1706,-0.1711,-0.1704,-0.1709,-0.1647,-0.1647,-0.1647,0,-0.1713,-0.1695,-0.1684,-0.1673,-0.1668,-0.1682,-0.1673,-0.1669,-0.1644,-0.1645,-0.1661,-0.1637,-0.1647,-0.1659,-0.1672,-0.1642,-0.165,-0.1696,-0.1704,-0.171,-0.1715,-0.1707,-0.1712,-0.1648,-0.1648,-0.1648,-0.1648,0,-0.1674,-0.1671,-0.1651,-0.1664,-0.1663,-0.1648,-0.1668,-0.1672,-0.1693,-0.1698,-0.1709,-0.1689,-0.1686,-0.169,-0.169,-0.1724,-0.1714,-0.1703,-0.1721,-0.1725,-0.1713,-0.1718,-0.165,-0.1649,-0.1649,-0.1649,0,0,-0.1642,-0.1631,-0.1626,-0.163,-0.1657,-0.1646,-0.1684,-0.1705,-0.1713,-0.1734,-0.1731,-0.1758,-0.1751,-0.1756,-0.1739,-0.1765,-0.1801,-0.1768,-0.1768,-0.1786,-0.1832,-0.1621,-0.1606,-0.1805,-0.1806,-0.1808,-0.1799,0,-0.1619,-0.1599,-0.1613,-0.1614,-0.1598,-0.1637,-0.1667,-0.1703,-0.1724,-0.1725,-0.1752,-0.1749,-0.1777,-0.1763,-0.1802,-0.1801,-0.1821,-0.1805,-0.1804,-0.1804,-0.1638,-0.1607,-0.1519,-0.1487,-0.1804,-0.1805,-0.1806,0,-0.1568,-0.1569,-0.1556,-0.1583,-0.158,-0.1604,-0.1641,-0.1675,-0.1713,-0.1728,-0.1753,-0.1752,-0.1796,-0.1799,-0.1859,-0.1854,-0.1861,-0.1863,-0.1862,-0.1667,-0.1602,-0.1536,-0.1484,-0.1814,-0.1813,-0.1813,-0.1812,0,-0.1531,-0.1525,-0.1524,-0.1522,-0.1563,-0.1577,-0.1624,-0.1667,-0.1713,-0.1721,-0.1747,-0.1771,-0.1806,-0.1831,-0.1847,-0.1867,-0.1889,-0.1898,-0.1712,-0.1697,-0.1621,-0.1594,-0.1936,-0.1936,-0.1936,-0.1936,-0.1936,0,-0.1494,-0.149,-0.1497,-0.1494,-0.1516,-0.1549,-0.1593,-0.1628,-0.1687,-0.1742,-0.1753,-0.1759,-0.1831,-0.1838,-0.1842,-0.1775,-0.1883,-0.1717,-0.1679,-0.1619,-0.1593,-0.1885,-0.1879,-0.1936,-0.1936,-0.1936,-0.1936,0,-0.1468,-0.1464,-0.1466,-0.1489,-0.1501,-0.1525,-0.1627,-0.1674,-0.1711,-0.1773,-0.1789,-0.1811,-0.1778,-0.1786,-0.1796,-0.1755,-0.1697,-0.1641,-0.1542,-0.1489,-0.1505,-0.1501,-0.1447,-0.1439,-0.1433,-0.1428,-0.1423,0,-0.1464,-0.1453,-0.147,-0.1488,-0.1507,-0.1552,-0.1622,-0.1695,-0.1739,-0.178,-0.1805,-0.1774,-0.1675,-0.1568,-0.1473,-0.137,-0.1513,-0.1255,-0.1253,-0.1485,-0.1456,-0.1462,-0.1466,-0.1182,-0.1175,-0.1171,-0.1166,0,-0.1461,-0.1462,-0.1469,-0.1503,-0.1558,-0.1631,-0.1697,-0.1716,-0.1797,-0.1761,-0.1667,-0.1557,-0.1435,-0.1224,-0.1096,-0.1043,-0.1251,-0.1139,-0.1442,-0.1273,-0.1221,-0.1196,-0.1213,-0.1122,-0.1126,-0.113,-0.1132,-0.1134,-0.1466,-0.1461,-0.1463,-0.1492,-0.1577,-0.164,-0.1606,-0.1637,-0.1599,-0.1452,-0.1462,-0.1214,-0.1215,-0.0849,-0.0778,-0.0737,-0.0834,-0.0863,-0.0887,-0.0914,-0.0839,-0.0773,-0.0577,-0.0578,-0.0579,-0.058,-0.0581,0,-0.142,-0.1401,-0.1452,-0.1461,-0.1514,-0.159,-0.1602,-0.1497,-0.1297,-0.119,-0.0974,-0.0789,-0.0619,-0.0624,-0.0463,-0.0409,-0.0491,-0.0424,-0.0588,-0.0629,-0.0667,-0.0588,-0.0256,-0.0255,-0.0254,-0.0253,0,0,-0.1388,-0.1362,-0.1366,-0.1356,-0.1381,-0.1336,-0.1275,-0.1107,-0.0936,-0.0639,-0.0457,-0.043,-0.05,-0.0351,-0.034,-0.0259,-0.0426,-0.0224,-0.0483,-0.0709,-0.0745,-0.0913,-0.0832,0,0,0,0,0]},{"header":{"parameterUnit":"m.s-1","parameterCategory":2,"la1":30.2991,"la2":30.254,"lo1":-89.0895,"lo2":-89.0444,"dy":0.0017,"dx":0.0017,"nx":28,"ny":28,"refTime":"2025-07-23T09:00:00:Z","depth":"2","parameterNumber":3,"parameterNumberName":"V-component_of_CURRENTS"},"data":[0,0,0,0,0,0,0,0,0,0,0,0,0,0,0,0,0,0,0,0,0,0,0,0,0,0,0,0,0,0,0,0,0,0,0,0,0,0,0,0,0,0,0,0,0,0,0,0,0,0,0,0,0,0,0,0,0,0,-0.0238,-0.0237,0,-0.0141,-0.014,-0.0139,-0.0078,-0.0077,-0.0077,-0.0077,0.0035,0.0038,0.0041,0,0,0,0,0,0,0,0,0,0,0,0,0,-0.0322,-0.0321,-0.0238,-0.0237,-0.0236,-0.0141,-0.014,-0.0138,-0.0078,-0.0077,-0.0077,-0.0077,0.0034,0.0038,0.0041,0,0,0,0,0,0,0,0,0,0,0,0,0,-0.026,-0.0321,-0.0239,-0.0195,-0.0191,-0.0141,-0.014,-0.0138,-0.0078,-0.0077,-0.0077,-0.0077,0.0033,0.0037,0.0042,0.0061,0,0,0.0054,0.0056,0,0,0,0,0,0,0,0,-0.0264,-0.0257,-0.0203,-0.0198,-0.0193,-0.0122,-0.0128,-0.0071,-0.0078,-0.0119,-0.0077,-0.0077,-0.0017,-0.0009,0.0011,0.0066,0.0071,0.0055,0.0057,0.0059,0.006,0,0,0,0,0,0,0,-0.0268,-0.0261,-0.0198,-0.0202,-0.0196,-0.0164,-0.0155,-0.0117,-0.007,-0.0116,-0.0111,-0.0103,-0.0014,0.0006,0.0014,0.0073,0.0055,0.0058,0.0061,0.0063,0.014,0.014,0,0,0,0,0,0,-0.0286,-0.0265,-0.0202,-0.0196,-0.023,-0.0163,-0.0153,-0.0144,-0.007,-0.0059,-0.0103,-0.01,-0.0001,0.0009,0.0018,0.0043,0.0059,0.0063,0.0065,0.0141,0.014,0.014,0,0,0,0,0,0,-0.0288,-0.0281,-0.0206,-0.0229,-0.0217,-0.0163,-0.0153,-0.0142,-0.0117,-0.0061,-0.005,-0.0088,-0.0,0.0012,0.0035,0.0048,0.0065,0.0069,0.0141,0.0141,0.014,0.0094,0,0,0,0,0,0,-0.0291,-0.0282,-0.0288,-0.023,-0.0217,-0.0179,-0.0153,-0.0141,-0.0113,-0.0108,-0.0044,-0.0034,0.0001,0.0028,0.0039,0.0054,0.0072,0.0142,0.0141,0.014,0.0097,0.0092,0.0089,0,0,0,0,0,-0.0294,-0.0291,-0.0289,-0.0282,-0.0225,-0.0179,-0.0169,-0.0128,-0.0113,-0.0103,-0.0075,-0.0035,0.0031,0.0031,0.0044,0.006,0.0142,0.0141,0.014,0.0098,0.0093,0.0089,0,0,0,0,0,0,-0.0326,-0.0283,-0.028,-0.0264,-0.0232,-0.017,-0.0152,-0.013,-0.0097,-0.0099,-0.0045,-0.0033,-0.0005,0.0026,0.0024,0.0078,0.0096,0.0097,0.0059,0.0055,0.0051,0.0025,0.0075,0,0,0,0,0,-0.0341,-0.0334,-0.0286,-0.028,-0.0257,-0.0209,-0.0187,-0.0167,-0.0129,-0.0113,-0.007,-0.0032,0.0002,0.0024,0.0057,0.0085,0.0127,0.0104,0.01,0.0097,0.0083,0.0162,0.0165,0.0137,0.0137,0.0137,0,0,-0.0346,-0.0331,-0.0322,-0.0289,-0.0253,-0.0233,-0.0193,-0.0165,-0.0158,-0.0107,-0.0081,-0.0044,0.0003,0.0031,0.0048,0.006,0.0124,0.0095,0.0092,0.008,0.0162,0.0165,0.0167,0.0136,0.0136,0.0136,0,0,-0.0358,-0.0342,-0.0336,-0.0308,-0.0275,-0.0255,-0.0249,-0.0193,-0.0172,-0.0158,-0.0115,-0.0083,-0.0029,0.001,0.0036,0.0029,0.0099,0.0049,0.0016,0.0094,0.0097,0.0101,0.015,0.0158,0.0051,0.0051,0.0051,0,-0.0377,-0.0362,-0.0327,-0.0311,-0.0296,-0.0266,-0.0255,-0.023,-0.0185,-0.0168,-0.0162,-0.0081,-0.0041,0.0006,-0.0003,0.0023,0.0069,0.0033,0.009,0.0094,0.0099,0.0149,0.0158,0.0049,0.0049,0.0049,0.0049,0,-0.0372,-0.0363,-0.0349,-0.0334,-0.0319,-0.0301,-0.027,-0.0256,-0.0243,-0.0217,-0.0175,-0.0127,-0.0075,-0.0054,-0.0036,0.0019,0.0042,0.0076,0.0104,0.0099,0.0152,0.0162,0.0045,0.0046,0.0047,0.0047,0,0,-0.0392,-0.0358,-0.0354,-0.0351,-0.0329,-0.0315,-0.031,-0.0286,-0.0268,-0.0241,-0.02,-0.0164,-0.013,-0.0101,-0.0052,-0.0,0.0063,0.004,0.0045,0.0089,0.0222,0.0239,0.0252,0.0119,0.0121,0.0122,0.0244,0,-0.04,-0.0392,-0.0376,-0.0375,-0.0356,-0.0338,-0.0335,-0.0319,-0.0291,-0.0243,-0.0196,-0.0145,-0.0146,-0.0108,-0.0062,0.0055,0.0091,0.0026,0.0217,0.0222,0.024,0.0265,0.0216,0.0321,0.0255,0.0257,0.0258,0,-0.0386,-0.0389,-0.0391,-0.0388,-0.0378,-0.0387,-0.037,-0.0366,-0.0306,-0.0273,-0.0224,-0.0165,-0.0087,-0.0084,0.007,0.0035,0.0102,0.0172,0.018,0.0216,0.026,0.0316,0.0344,0.0277,0.0276,0.0274,0.0273,0,-0.0412,-0.0392,-0.041,-0.0401,-0.0396,-0.0402,-0.0411,-0.0375,-0.0355,-0.0279,-0.0229,-0.0144,-0.0063,0.0027,0.0139,0.0128,0.0311,0.033,0.0392,0.0394,0.0397,0.0396,0.041,0.041,0.0409,0.0409,0.0409,0,-0.0422,-0.0426,-0.0417,-0.043,-0.0449,-0.0429,-0.0441,-0.0425,-0.0364,-0.0318,-0.0245,-0.0167,-0.0028,0.0091,0.0164,0.0315,0.0336,0.0386,0.0434,0.0378,0.0374,0.037,0.0363,0.0413,0.0412,0.0412,0.0411,0,-0.045,-0.044,-0.0462,-0.0469,-0.0467,-0.049,-0.0483,-0.0464,-0.0404,-0.0326,-0.0293,-0.0145,0.0007,0.0121,0.0302,0.0372,0.0497,0.0526,0.0431,0.0465,0.0519,0.0509,0.064,0.0642,0.0643,0.0645,0.0646,0,-0.0471,-0.0484,-0.0514,-0.0531,-0.0541,-0.0553,-0.055,-0.0504,-0.0454,-0.0311,-0.0249,-0.0092,0.0015,0.0267,0.0432,0.058,0.0526,0.06,0.0562,0.0512,0.0546,0.0533,0.0522,0.0547,0.0547,0.0547,0.0547,0,-0.0524,-0.0539,-0.0575,-0.0614,-0.0621,-0.0605,-0.0576,-0.0544,-0.0448,-0.0356,-0.0208,-0.0119,0.0136,0.0304,0.0493,0.0562,0.0579,0.0609,0.0622,0.0488,0.0433,0.0463,0.0453,0.0548,0.0548,0.0548,0.0548,0.0548,-0.058,-0.0618,-0.0665,-0.0702,-0.0698,-0.0645,-0.0624,-0.0552,-0.0476,-0.0309,-0.0206,-0.003,0.014,0.0438,0.0527,0.063,0.0657,0.0639,0.0635,0.0632,0.0592,0.0542,0.0669,0.0669,0.067,0.067,0.0671,0,-0.0636,-0.0668,-0.0732,-0.0748,-0.0737,-0.0704,-0.0621,-0.0578,-0.0484,-0.0301,-0.0166,0.0045,0.0224,0.037,0.0563,0.0668,0.0641,0.0621,0.0549,0.0549,0.0548,0.05,0.0554,0.0554,0.0554,0.0554,0,0,-0.0671,-0.0744,-0.0782,-0.0781,-0.0757,-0.0697,-0.0643,-0.058,-0.0462,-0.0302,-0.0118,0.0102,0.0281,0.0381,0.046,0.0505,0.0494,0.0495,0.058,0.0482,0.0479,0.0553,0.0479,0,0,0,0,0]}],[{"header":{"parameterUnit":"m.s-1","parameterCategory":2,"la1":30.2991,"la2":30.254,"lo1":-89.0895,"lo2":-89.0444,"dy":0.0017,"dx":0.0017,"nx":28,"ny":28,"refTime":"2025-07-23T09:00:00:Z","depth":"4","parameterNumber":2,"parameterNumberName":"U-component_of_CURRENTS"},"data":[0,0,0,0,0,0,0,0,0,0,0,0,0,0,0,0,0,0,0,0,0,0,0,0,0,0,0,0,0,0,0,0,0,0,0,0,0,0,0,0,0,0,0,0,0,0,0,0,0,0,0,0,0,0,0,0,0,0,-0.1086,-0.1086,0,-0.1095,-0.1095,-0.1095,-0.1125,-0.1126,-0.1127,-0.1127,-0.116,-0.116,-0.1161,0,0,0,0,0,0,0,0,0,0,0,0,0,-0.1116,-0.1116,-0.1086,-0.1086,-0.1086,-0.1095,-0.1095,-0.1095,-0.1125,-0.1126,-0.1127,-0.1127,-0.116,-0.116,-0.1161,0,0,0,0,0,0,0,0,0,0,0,0,0,-0.1113,-0.1115,-0.1086,-0.1102,-0.1103,-0.1095,-0.1095,-0.1095,-0.1125,-0.1126,-0.1127,-0.1128,-0.116,-0.116,-0.1161,-0.1145,0,0,-0.1162,-0.1162,0,0,0,0,0,0,0,0,-0.1113,-0.1112,-0.1099,-0.1101,-0.1102,-0.1109,-0.1118,-0.1113,-0.1125,-0.1118,-0.1127,-0.1128,-0.1144,-0.1146,-0.1146,-0.1147,-0.1148,-0.1162,-0.1162,-0.1163,-0.1163,0,0,0,0,0,0,0,-0.1113,-0.1112,-0.1091,-0.1099,-0.1101,-0.1115,-0.1116,-0.1117,-0.1127,-0.1118,-0.112,-0.112,-0.1145,-0.1146,-0.1147,-0.1149,-0.1162,-0.1163,-0.1163,-0.1163,-0.1216,-0.1217,0,0,0,0,0,0,-0.1108,-0.1111,-0.109,-0.1091,-0.1109,-0.1114,-0.1114,-0.1107,-0.1126,-0.113,-0.1119,-0.1121,-0.1145,-0.1147,-0.1149,-0.1195,-0.1163,-0.1163,-0.1163,-0.1215,-0.1216,-0.1217,0,0,0,0,0,0,-0.1108,-0.1106,-0.109,-0.1101,-0.11,-0.1112,-0.1104,-0.1106,-0.1125,-0.1126,-0.1131,-0.1137,-0.1145,-0.1148,-0.1169,-0.1194,-0.1163,-0.1164,-0.1213,-0.1215,-0.1217,-0.1247,0,0,0,0,0,0,-0.1109,-0.1106,-0.1113,-0.1101,-0.1099,-0.1101,-0.1103,-0.1106,-0.1122,-0.1126,-0.1143,-0.1146,-0.1146,-0.1169,-0.117,-0.1194,-0.1164,-0.1212,-0.1214,-0.1216,-0.1244,-0.1249,-0.1253,0,0,0,0,0,-0.111,-0.111,-0.1113,-0.1111,-0.1104,-0.1102,-0.1103,-0.1115,-0.1122,-0.1135,-0.1147,-0.1146,-0.1183,-0.117,-0.1171,-0.1196,-0.1211,-0.1213,-0.1216,-0.1242,-0.1248,-0.1253,0,0,0,0,0,0,-0.113,-0.1112,-0.1116,-0.1112,-0.1116,-0.1107,-0.1119,-0.1123,-0.1141,-0.115,-0.1152,-0.1156,-0.1188,-0.1186,-0.117,-0.1219,-0.12,-0.1203,-0.122,-0.1225,-0.123,-0.1216,-0.1165,0,0,0,0,0,-0.1136,-0.113,-0.1121,-0.1122,-0.1124,-0.1125,-0.113,-0.1136,-0.1142,-0.1151,-0.1162,-0.1177,-0.1194,-0.1205,-0.1218,-0.1236,-0.1211,-0.1256,-0.126,-0.1264,-0.1255,-0.1232,-0.1233,-0.1225,-0.1225,-0.1225,0,0,-0.1144,-0.1134,-0.1133,-0.1127,-0.113,-0.1138,-0.1131,-0.1141,-0.1157,-0.1151,-0.1183,-0.1193,-0.1203,-0.1231,-0.1245,-0.1234,-0.1257,-0.1267,-0.1271,-0.1259,-0.1235,-0.1235,-0.1235,-0.1227,-0.1227,-0.1227,0,0,-0.1151,-0.115,-0.1149,-0.1153,-0.1157,-0.1158,-0.1164,-0.1166,-0.1181,-0.1205,-0.121,-0.1228,-0.1256,-0.1262,-0.1271,-0.1305,-0.1282,-0.1322,-0.1332,-0.1311,-0.131,-0.131,-0.1287,-0.1284,-0.1324,-0.1324,-0.1324,0,-0.1168,-0.1158,-0.1153,-0.1156,-0.1161,-0.1169,-0.1177,-0.1193,-0.1206,-0.1211,-0.1225,-0.1254,-0.1269,-0.1286,-0.1308,-0.1314,-0.1296,-0.131,-0.1314,-0.1313,-0.1312,-0.1289,-0.1285,-0.1326,-0.1325,-0.1325,-0.1325,0,-0.1168,-0.1173,-0.1174,-0.118,-0.119,-0.1196,-0.121,-0.123,-0.1249,-0.1255,-0.1281,-0.1294,-0.1304,-0.1325,-0.1332,-0.1339,-0.1327,-0.1321,-0.1295,-0.1314,-0.1289,-0.1285,-0.1328,-0.1327,-0.1327,-0.1326,0,0,-0.1162,-0.1172,-0.1174,-0.118,-0.1199,-0.1201,-0.1235,-0.125,-0.1261,-0.1289,-0.1295,-0.1337,-0.1331,-0.1339,-0.1346,-0.1339,-0.1329,-0.1332,-0.133,-0.13,-0.1278,-0.1185,-0.1171,-0.1322,-0.1321,-0.1321,-0.1266,0,-0.1164,-0.1168,-0.1177,-0.1195,-0.1197,-0.1219,-0.1243,-0.1263,-0.1285,-0.1297,-0.1311,-0.1324,-0.1341,-0.1345,-0.1342,-0.1333,-0.1318,-0.1344,-0.1272,-0.127,-0.1176,-0.1163,-0.1319,-0.1263,-0.1262,-0.1261,-0.126,0,-0.115,-0.1155,-0.1166,-0.1185,-0.1189,-0.121,-0.1233,-0.1255,-0.1279,-0.1292,-0.1303,-0.1311,-0.1317,-0.1323,-0.1302,-0.1318,-0.1298,-0.1288,-0.1285,-0.1179,-0.1168,-0.1239,-0.1252,-0.1253,-0.1253,-0.1254,-0.1254,0,-0.1116,-0.1142,-0.1148,-0.1156,-0.1186,-0.1201,-0.1222,-0.125,-0.1256,-0.1281,-0.1277,-0.1291,-0.1286,-0.1273,-0.1265,-0.1281,-0.1225,-0.1239,-0.1132,-0.1126,-0.1214,-0.1215,-0.1202,-0.1202,-0.1202,-0.1202,-0.1202,0,-0.1085,-0.1095,-0.1137,-0.1136,-0.115,-0.118,-0.1189,-0.1216,-0.1233,-0.1215,-0.1262,-0.1237,-0.1272,-0.125,-0.1246,-0.1166,-0.1204,-0.1117,-0.1097,-0.1231,-0.1234,-0.1211,-0.1212,-0.12,-0.1201,-0.1201,-0.1201,0,-0.1038,-0.1063,-0.1076,-0.1116,-0.1128,-0.1139,-0.1163,-0.1155,-0.119,-0.1165,-0.1167,-0.1192,-0.1158,-0.1174,-0.1149,-0.1118,-0.1069,-0.103,-0.1166,-0.1158,-0.0993,-0.0997,-0.0899,-0.0895,-0.0892,-0.0889,-0.0887,0,-0.1012,-0.1011,-0.1055,-0.1054,-0.1074,-0.1092,-0.1083,-0.1125,-0.1106,-0.1113,-0.1078,-0.1072,-0.1074,-0.0963,-0.1003,-0.0967,-0.096,-0.0933,-0.0968,-0.0966,-0.0957,-0.0967,-0.0976,-0.0882,-0.0881,-0.088,-0.0879,0,-0.0966,-0.0989,-0.0995,-0.0989,-0.0989,-0.0978,-0.0975,-0.0954,-0.0971,-0.1021,-0.095,-0.0927,-0.0884,-0.0881,-0.0858,-0.0839,-0.0954,-0.0899,-0.0906,-0.0939,-0.0944,-0.0941,-0.0953,-0.0867,-0.0869,-0.087,-0.0871,0,-0.0935,-0.0926,-0.0923,-0.0903,-0.0895,-0.0836,-0.0863,-0.082,-0.0811,-0.0834,-0.0806,-0.0811,-0.0853,-0.081,-0.0788,-0.0763,-0.0757,-0.0742,-0.0758,-0.0771,-0.0757,-0.0747,-0.0572,0,0,0,0,0,-0.0895,-0.0849,-0.0827,-0.0778,-0.0762,-0.0746,-0.0758,-0.0783,-0.0814,-0.073,-0.0765,-0.072,-0.0683,-0.0701,-0.0648,-0.0733,-0.0765,-0.0669,-0.0758,-0.0803,-0.0817,-0.0814,0,0,0,0,0,0,-0.0858,-0.0837,-0.0792,-0.0661,-0.0602,-0.056,-0.0562,-0.0597,-0.0563,-0.0619,-0.0607,-0.0656,-0.0642,-0.0685,-0.0622,-0.0627,-0.0663,-0.069,-0.0688,-0.0796,-0.0808,-0.0819,-0.0821,0,0,0,0,0]},{"header":{"parameterUnit":"m.s-1","parameterCategory":2,"la1":30.2991,"la2":30.254,"lo1":-89.0895,"lo2":-89.0444,"dy":0.0017,"dx":0.0017,"nx":28,"ny":28,"refTime":"2025-07-23T09:00:00:Z","depth":"4","parameterNumber":3,"parameterNumberName":"V-component_of_CURRENTS"},"data":[0,0,0,0,0,0,0,0,0,0,0,0,0,0,0,0,0,0,0,0,0,0,0,0,0,0,0,0,0,0,0,0,0,0,0,0,0,0,0,0,0,0,0,0,0,0,0,0,0,0,0,0,0,0,0,0,0,0,-0.011,-0.011,0,-0.0099,-0.0099,-0.0099,-0.0076,-0.0076,-0.0076,-0.0075,-0.0051,-0.0051,-0.005,0,0,0,0,0,0,0,0,0,0,0,0,0,-0.0132,-0.0131,-0.011,-0.011,-0.011,-0.0099,-0.0099,-0.0099,-0.0076,-0.0076,-0.0075,-0.0075,-0.0051,-0.0051,-0.005,0,0,0,0,0,0,0,0,0,0,0,0,0,-0.0121,-0.0131,-0.011,-0.0098,-0.0097,-0.0099,-0.0099,-0.0099,-0.0076,-0.0076,-0.0075,-0.0075,-0.0051,-0.0051,-0.005,-0.0058,0,0,-0.0049,-0.0049,0,0,0,0,0,0,0,0,-0.0122,-0.012,-0.01,-0.0099,-0.0098,-0.0089,-0.0098,-0.0085,-0.0077,-0.0083,-0.0075,-0.0075,-0.0064,-0.0062,-0.006,-0.0057,-0.0056,-0.0049,-0.0048,-0.0048,-0.0048,0,0,0,0,0,0,0,-0.0122,-0.012,-0.0104,-0.01,-0.0098,-0.0101,-0.0098,-0.0095,-0.0075,-0.0082,-0.0081,-0.0082,-0.0063,-0.006,-0.0059,-0.0055,-0.0049,-0.0048,-0.0048,-0.0048,-0.0029,-0.0029,0,0,0,0,0,0,-0.0125,-0.0121,-0.0105,-0.0104,-0.011,-0.0101,-0.0098,-0.0092,-0.0076,-0.0073,-0.0082,-0.0081,-0.0062,-0.006,-0.0058,-0.0039,-0.0048,-0.0048,-0.0047,-0.0029,-0.0029,-0.0029,0,0,0,0,0,0,-0.0126,-0.0124,-0.0105,-0.0114,-0.0112,-0.0101,-0.0094,-0.0092,-0.0089,-0.0076,-0.0073,-0.0081,-0.0061,-0.0059,-0.0059,-0.0038,-0.0048,-0.0047,-0.003,-0.0029,-0.0029,-0.0017,0,0,0,0,0,0,-0.0126,-0.0124,-0.0125,-0.0114,-0.0111,-0.0105,-0.0095,-0.0092,-0.009,-0.0088,-0.0074,-0.0071,-0.006,-0.006,-0.0058,-0.0038,-0.0047,-0.003,-0.0029,-0.0029,-0.0018,-0.0017,-0.0015,0,0,0,0,0,-0.0127,-0.0131,-0.0125,-0.0124,-0.0112,-0.0106,-0.0104,-0.0095,-0.0091,-0.009,-0.0084,-0.0072,-0.0055,-0.006,-0.0058,-0.0037,-0.003,-0.003,-0.0029,-0.0018,-0.0017,-0.0015,0,0,0,0,0,0,-0.0145,-0.0129,-0.0122,-0.0122,-0.0114,-0.0102,-0.0106,-0.0098,-0.0093,-0.0093,-0.0079,-0.0076,-0.0066,-0.006,-0.0065,-0.0031,-0.0037,-0.0036,-0.0029,-0.0027,-0.0026,-0.0025,-0.0046,0,0,0,0,0,-0.0149,-0.0147,-0.0131,-0.0134,-0.0129,-0.0118,-0.0117,-0.0108,-0.0102,-0.0099,-0.0089,-0.0077,-0.0064,-0.0054,-0.0047,-0.0035,-0.0016,-0.0018,-0.0017,-0.0015,-0.0013,0.0027,0.0033,-0.0027,-0.0027,-0.0027,0,0,-0.0159,-0.0151,-0.015,-0.0138,-0.0132,-0.0123,-0.0115,-0.0114,-0.0102,-0.0098,-0.0087,-0.008,-0.0063,-0.0046,-0.0039,-0.0036,0.0012,-0.0015,-0.0014,-0.0012,0.0029,0.0035,0.004,-0.0027,-0.0027,-0.0027,0,0,-0.017,-0.0167,-0.0162,-0.0155,-0.0145,-0.0137,-0.0136,-0.0123,-0.0111,-0.0106,-0.0092,-0.0075,-0.0065,-0.0036,-0.0023,-0.0013,0.0011,-0.0009,0.0008,0.0047,0.0053,0.0058,0.0095,0.0103,-0.0,-0.0,-0.0,0,-0.0181,-0.0171,-0.0162,-0.0154,-0.0152,-0.0141,-0.0136,-0.0121,-0.011,-0.0102,-0.0102,-0.0071,-0.0054,-0.0016,-0.0006,-0.0006,0.0014,0.0002,0.005,0.0056,0.0061,0.0097,0.0106,0.0,0.0,0.0,0.0,0,-0.0178,-0.0175,-0.0175,-0.0157,-0.0154,-0.0153,-0.0132,-0.0126,-0.0118,-0.0101,-0.0076,-0.0053,-0.0033,-0.0015,-0.0006,0.0043,0.0045,0.0042,0.0049,0.0068,0.0105,0.0114,0.0001,0.0001,0.0001,0.0001,0,0,-0.0185,-0.0174,-0.0174,-0.0177,-0.0158,-0.0162,-0.0141,-0.0122,-0.0119,-0.0089,-0.0074,-0.0027,-0.0017,-0.0001,0.0021,0.0067,0.0128,0.0071,0.0073,0.0111,0.0215,0.0188,0.0196,0.0133,0.0134,0.0135,0.0228,0,-0.0183,-0.0184,-0.017,-0.0176,-0.0176,-0.0164,-0.0153,-0.0136,-0.0121,-0.0106,-0.0055,-0.0039,-0.0009,-0.0004,0.0051,0.0098,0.0151,0.0103,0.0187,0.019,0.0167,0.0205,0.014,0.0235,0.0237,0.0239,0.024,0,-0.0172,-0.018,-0.0186,-0.0198,-0.0197,-0.0197,-0.0198,-0.0186,-0.015,-0.0137,-0.0097,-0.007,0.0004,0.0015,0.0138,0.0103,0.0162,0.0208,0.0212,0.0189,0.018,0.021,0.0257,0.0255,0.0254,0.0253,0.0252,0,-0.0186,-0.019,-0.0205,-0.0206,-0.0211,-0.0216,-0.0219,-0.0198,-0.0197,-0.0158,-0.0154,-0.0071,-0.0034,0.0056,0.0158,0.0147,0.0286,0.028,0.0319,0.0318,0.0308,0.0301,0.0372,0.0371,0.0371,0.0371,0.0371,0,-0.0183,-0.0196,-0.0221,-0.0229,-0.0265,-0.0249,-0.0273,-0.0263,-0.0244,-0.0246,-0.0175,-0.0155,-0.0023,0.0067,0.0158,0.027,0.0293,0.0332,0.0344,0.031,0.0303,0.0315,0.0307,0.0374,0.0374,0.0373,0.0372,0,-0.019,-0.0195,-0.0231,-0.0259,-0.0271,-0.0302,-0.0325,-0.0342,-0.031,-0.031,-0.0297,-0.0202,-0.008,0.0054,0.0207,0.0264,0.0372,0.0407,0.0368,0.0374,0.0378,0.037,0.0457,0.0457,0.0457,0.0457,0.0457,0,-0.0192,-0.021,-0.0274,-0.0312,-0.0328,-0.0367,-0.0396,-0.0383,-0.0396,-0.0343,-0.0345,-0.0225,-0.0149,0.0056,0.0195,0.0379,0.0396,0.0443,0.0412,0.0386,0.0389,0.0381,0.0373,0.0457,0.0457,0.0457,0.0457,0,-0.0219,-0.0249,-0.0293,-0.0371,-0.0418,-0.047,-0.0502,-0.0508,-0.0484,-0.0452,-0.0385,-0.0272,-0.0129,0.004,0.0192,0.0316,0.0405,0.0443,0.0444,0.0414,0.0387,0.0388,0.038,0.0456,0.0456,0.0456,0.0457,0,-0.0262,-0.0311,-0.0377,-0.0443,-0.0508,-0.0559,-0.0562,-0.0562,-0.0558,-0.048,-0.0458,-0.0292,-0.0185,0.0008,0.0142,0.0271,0.0292,0.0303,0.0311,0.0313,0.0238,0.018,0.0207,0,0,0,0,0,-0.0306,-0.0367,-0.0442,-0.052,-0.0579,-0.0611,-0.0634,-0.0621,-0.058,-0.0547,-0.0499,-0.0367,-0.0155,-0.0054,0.0071,0.0134,0.031,0.028,0.0324,0.0455,0.0455,0.0389,0,0,0,0,0,0,-0.0347,-0.0422,-0.0461,-0.0568,-0.062,-0.0687,-0.07,-0.0667,-0.0634,-0.0568,-0.0446,-0.0369,-0.0149,-0.0225,0.0064,0.0106,0.0141,0.0394,0.0395,0.0455,0.0455,0.0456,0.0387,0,0,0,0,0]}]]